Starlink 35140

operational
NORAD ID: 65501 Int'l Des: 2025-198 Owner: SPXS Country: US Constellation: starlink
LEOCIRCULAR

Starlink 35140について

説明を読み込み中...

リアルタイム位置

3D地球を読み込み中...

次回通過

高度履歴

Altitude vs Time

uPlot chart will show altitude changes over time

軌道要素

1 65501U 25198K 25340.75631494 .00154345 00000-0 37977-2 0 9992
2 65501 53.1618 346.7794 0001935 66.0372 294.0836 15.39565802 14332
Epoch: Dec 6, 2025 • Age: 20 hours

現在のステータス

高度 466.4 km
速度 7.63 km/s
衛星直下点 -53.23°S, 38.34°W
打ち上げ日 Sep 5, 2025
運用期間 0.2 years
タイプ internet

技術仕様

分類 Payload
質量 575.00 kg
乾燥質量 530.00 kg
総質量 575.00 kg
長さ 0.30 m
直径 4.10 m
スパン 29.00 m
形状 Box + pan
製造者 SPXS
バスタイプ Starlink V2MO
フェーズステータス In Orbit
所有者/国 SPXS/US

大規模コンステレーション

Loading constellations...